Back to catalog

COSMOS 2251 DEB

AliveLEO
NORAD 34721·DEBRIS·🇷🇺 Russia

Launched Jun 16, 1993 from Plesetsk Cosmodrome

Loading…

Next Passes (next 24 hours)

TLE

FreshSource: Space-Track

Epoch: Sep 14, 2026, 13:31 UTC

1 34721U 93036YP  26257.56364791  .00001395  00000-0  82484-3 0  9998
2 34721  73.9213 207.3229 0213757  91.2538  26.8306 13.97811703890026

Track COSMOS 2251 DEB in real time with AllMySat

Download on the App Store